Hourly Weather Olekminsk

Today, 8 August, Saturday

Time Temperature Precipitation Wind Pressure Humidity
00:00 +16°C° 0 mm 1 mps 733 mmHg 90%
01:00 +15°C° 0 mm 1 mps 733 mmHg 92%
02:00 +14°C° 0 mm 1 mps 733 mmHg 94%
03:00 +14°C° 0 mm 1 mps 733 mmHg 94%
04:00 +14°C° 0 mm 1 mps 733 mmHg 94%
05:00 +14°C° 0 mm 1 mps 733 mmHg 94%
06:00 +16°C° 0 mm 2 mps 733 mmHg 87%
07:00 +17°C° 0 mm 2 mps 733 mmHg 79%
08:00 +19°C° 0 mm 2 mps 733 mmHg 72%
09:00 +21°C° 0 mm 3 mps 733 mmHg 63%
10:00 +24°C° 0 mm 3 mps 733 mmHg 54%
11:00 +26°C° 0 mm 4 mps 733 mmHg 45%
12:00 +26°C° 0 mm 4 mps 733 mmHg 44%
13:00 +26°C° 0 mm 4 mps 733 mmHg 43%
14:00 +27°C° 0 mm 4 mps 733 mmHg 42%
15:00 +26°C° 0 mm 4 mps 733 mmHg 43%
16:00 +26°C° 0 mm 4 mps 732 mmHg 43%
17:00 +26°C° 0 mm 4 mps 732 mmHg 44%
18:00 +24°C° 0 mm 3 mps 733 mmHg 53%
19:00 +21°C° 0 mm 3 mps 733 mmHg 62%
20:00 +18°C° 0 mm 2 mps 733 mmHg 71%
21:00 +18°C° 0 mm 1 mps 733 mmHg 78%
22:00 +16°C° 0 mm 1 mps 733 mmHg 84%
23:00 +13°C° 0 mm 0 mps 733 mmHg 90%

Tomorrow, 9 August, Sunday

Time Temperature Precipitation Wind Pressure Humidity
00:00 +13°C° 0 mm 0 mps 733 mmHg 91%
01:00 +12°C° 0 mm 0 mps 733 mmHg 92%
02:00 +12°C° 0 mm 0 mps 734 mmHg 93%
03:00 +12°C° 0 mm 0 mps 734 mmHg 92%
04:00 +12°C° 0 mm 0 mps 734 mmHg 92%
05:00 +12°C° 0 mm 0 mps 734 mmHg 92%
06:00 +15°C° 0 mm 0 mps 734 mmHg 81%
07:00 +18°C° 0 mm 0 mps 735 mmHg 71%
08:00 +20°C° 0 mm 0 mps 735 mmHg 60%
09:00 +22°C° 0 mm 0 mps 735 mmHg 54%
10:00 +24°C° 0 mm 0 mps 735 mmHg 47%
11:00 +26°C° 0 mm 0 mps 735 mmHg 41%
12:00 +28°C° 0 mm 1 mps 734 mmHg 38%
13:00 +28°C° 0 mm 1 mps 734 mmHg 35%
14:00 +28°C° 0 mm 1 mps 734 mmHg 32%
15:00 +27°C° 0 mm 1 mps 734 mmHg 34%
16:00 +27°C° 0 mm 1 mps 734 mmHg 36%
17:00 +27°C° 0 mm 1 mps 734 mmHg 38%
18:00 +25°C° 0 mm 1 mps 734 mmHg 44%
19:00 +23°C° 0 mm 1 mps 734 mmHg 50%
20:00 +19°C° 0 mm 0 mps 734 mmHg 56%
21:00 +19°C° 0 mm 0 mps 734 mmHg 57%
22:00 +18°C° 0 mm 0 mps 734 mmHg 58%
23:00 +18°C° 0 mm 0 mps 734 mmHg 58%

Day after tomorrow, 10 August, Monday

Time Temperature Precipitation Wind Pressure Humidity
00:00 +20°C° 0 mm 1 mps 734 mmHg 59%
01:00 +20°C° 0 mm 1 mps 734 mmHg 60%
02:00 +19°C° 0 mm 1 mps 734 mmHg 61%
03:00 +19°C° 0 mm 1 mps 734 mmHg 63%
04:00 +19°C° 0 mm 1 mps 734 mmHg 64%
05:00 +19°C° 0 mm 1 mps 734 mmHg 66%
06:00 +20°C° 0 mm 1 mps 734 mmHg 61%
07:00 +22°C° 0 mm 1 mps 735 mmHg 56%
08:00 +24°C° 0 mm 1 mps 735 mmHg 51%
09:00 +25°C° 0 mm 1 mps 735 mmHg 46%
10:00 +26°C° 0 mm 2 mps 735 mmHg 42%
11:00 +27°C° 0 mm 3 mps 735 mmHg 37%
12:00 +27°C° 0 mm 3 mps 735 mmHg 39%
13:00 +27°C° 0 mm 3 mps 735 mmHg 40%
14:00 +27°C° 0 mm 3 mps 735 mmHg 41%
15:00 +26°C° 0.1 mm 3 mps 735 mmHg 46%
16:00 +25°C° 0.1 mm 3 mps 735 mmHg 50%
17:00 +24°C° 0.1 mm 3 mps 735 mmHg 54%
18:00 +23°C° 0 mm 2 mps 735 mmHg 60%
19:00 +20°C° 0 mm 2 mps 735 mmHg 66%
20:00 +19°C° 0 mm 1 mps 735 mmHg 72%
21:00 +18°C° 0 mm 1 mps 735 mmHg 74%
22:00 +16°C° 0 mm 1 mps 735 mmHg 76%
23:00 +14°C° 0 mm 1 mps 736 mmHg 79%

11 August, Tuesday

Time Temperature Precipitation Wind Pressure Humidity
00:00 +13°C° 0 mm 0 mps 736 mmHg 80%
01:00 +13°C° 0 mm 0 mps 736 mmHg 81%
02:00 +12°C° 0 mm 0 mps 736 mmHg 82%
03:00 +12°C° 0 mm 0 mps 736 mmHg 83%
04:00 +12°C° 0 mm 0 mps 735 mmHg 83%
05:00 +12°C° 0 mm 0 mps 735 mmHg 84%
06:00 +14°C° 0 mm 0 mps 736 mmHg 76%
07:00 +16°C° 0 mm 0 mps 736 mmHg 68%
08:00 +18°C° 0 mm 0 mps 736 mmHg 59%
09:00 +20°C° 0 mm 1 mps 736 mmHg 59%
10:00 +21°C° 0 mm 1 mps 736 mmHg 59%
11:00 +21°C° 0 mm 1 mps 735 mmHg 59%
12:00 +22°C° 0 mm 1 mps 735 mmHg 54%
13:00 +24°C° 0 mm 1 mps 735 mmHg 49%
14:00 +25°C° 0 mm 1 mps 735 mmHg 45%
15:00 +23°C° 0.1 mm 1 mps 735 mmHg 55%
16:00 +20°C° 0.1 mm 2 mps 735 mmHg 66%
17:00 +18°C° 0.1 mm 2 mps 734 mmHg 77%
18:00 +17°C° 0.3 mm 2 mps 734 mmHg 82%
19:00 +16°C° 0.3 mm 1 mps 734 mmHg 87%
20:00 +16°C° 0.3 mm 1 mps 735 mmHg 93%
21:00 +15°C° 0.1 mm 1 mps 734 mmHg 93%
22:00 +15°C° 0.1 mm 1 mps 734 mmHg 93%
23:00 +14°C° 0.1 mm 1 mps 734 mmHg 94%

12 August, Wednesday

Time Temperature Precipitation Wind Pressure Humidity
00:00 +14°C° 0.1 mm 1 mps 734 mmHg 94%
01:00 +14°C° 0.1 mm 1 mps 734 mmHg 95%
02:00 +12°C° 0.1 mm 0 mps 733 mmHg 95%
03:00 +13°C° 0 mm 1 mps 733 mmHg 95%
04:00 +13°C° 0 mm 1 mps 733 mmHg 95%
05:00 +14°C° 0 mm 1 mps 733 mmHg 95%
06:00 +15°C° 0 mm 1 mps 733 mmHg 89%
07:00 +17°C° 0 mm 2 mps 733 mmHg 84%
08:00 +18°C° 0 mm 2 mps 733 mmHg 79%
09:00 +20°C° 0.1 mm 3 mps 733 mmHg 73%
10:00 +21°C° 0.1 mm 3 mps 733 mmHg 67%
11:00 +24°C° 0.1 mm 3 mps 734 mmHg 60%
12:00 +22°C° 0.4 mm 3 mps 734 mmHg 62%
13:00 +22°C° 0.4 mm 4 mps 734 mmHg 63%
14:00 +22°C° 0.4 mm 4 mps 734 mmHg 64%
15:00 +21°C° 0.1 mm 4 mps 734 mmHg 63%
16:00 +21°C° 0.1 mm 4 mps 735 mmHg 63%
17:00 +20°C° 0.1 mm 4 mps 735 mmHg 62%
18:00 +18°C° 0 mm 3 mps 735 mmHg 68%
19:00 +16°C° 0 mm 2 mps 735 mmHg 75%
20:00 +14°C° 0 mm 2 mps 736 mmHg 81%
21:00 +13°C° 0 mm 1 mps 736 mmHg 84%
22:00 +12°C° 0 mm 1 mps 736 mmHg 86%
23:00 +11°C° 0 mm 1 mps 736 mmHg 89%

13 August, Thursday

Time Temperature Precipitation Wind Pressure Humidity
00:00 +11°C° 0 mm 1 mps 737 mmHg 90%
01:00 +10°C° 0 mm 1 mps 737 mmHg 91%
02:00 +9°C° 0 mm 1 mps 737 mmHg 93%
03:00 +9°C° 0 mm 1 mps 737 mmHg 92%
04:00 +8°C° 0 mm 2 mps 737 mmHg 91%
05:00 +8°C° 0 mm 2 mps 737 mmHg 90%
06:00 +9°C° 0 mm 2 mps 737 mmHg 84%
07:00 +10°C° 0 mm 2 mps 737 mmHg 77%
08:00 +11°C° 0 mm 3 mps 737 mmHg 71%
09:00 +12°C° 0 mm 3 mps 737 mmHg 68%
10:00 +14°C° 0 mm 3 mps 737 mmHg 64%
11:00 +16°C° 0 mm 3 mps 736 mmHg 61%
12:00 +16°C° 0 mm 3 mps 736 mmHg 59%
13:00 +17°C° 0 mm 3 mps 736 mmHg 58%
14:00 +17°C° 0 mm 3 mps 736 mmHg 56%
15:00 +17°C° 0 mm 3 mps 736 mmHg 57%
16:00 +16°C° 0 mm 2 mps 736 mmHg 58%
17:00 +16°C° 0 mm 2 mps 735 mmHg 58%
18:00 +16°C° 0 mm 3 mps 735 mmHg 58%
19:00 +14°C° 0 mm 3 mps 735 mmHg 58%
20:00 +14°C° 0 mm 3 mps 735 mmHg 57%
21:00 +13°C° 0 mm 3 mps 735 mmHg 57%
22:00 +12°C° 0 mm 3 mps 735 mmHg 57%
23:00 +11°C° 0 mm 3 mps 735 mmHg 57%
Show more